Regional Weather Roundup
Issued by NWS Nashville, TN

Home | Current Version | Previous Version | Text Only | Print | Product List | Glossary On
Versions: 1 2 3 4 5 6 7 8 9 10 11 12 13 14 15 16 17 18 19 20 21 22 23 24 25 26 27 28 29 30 31 32 33 34 35 36 37 38 39 40 41 42 43 44 45 46 47 48 49 50
646
ASUS44 KOHX 301910
RWROHX
MIDDLE TENNESSEE HOURLY WEATHER ROUNDUP
NATIONAL WEATHER SERVICE NASHVILLE TN
200 PM CDT SAT JUL 30 2016

NOTE: "FAIR" INDICATES FEW OR NO CLOUDS BELOW 12,000 FEET WITH
NO SIGNIFICANT WEATHER AND/OR OBSTRUCTIONS TO VISIBILITY.

* THESE REPORTS ARE NOT UNDER NWS QUALITY CONTROL AND MAY NOT
  REPORT WEATHER SUCH AS PRECIPITATION AND FOG.


TNZ005>011-023>034-057-059-062>066-078-080-302000
...NORTHERN MIDDLE TENNESSEE...

CITY           SKY/WX    TMP DP  RH WIND       PRES   REMARKS
CLARKSVILLE    MOSUNNY   85  71  63 W7        29.98F HX  90
CROSSVILLE     PTSUNNY   82  68  62 W8        30.07F
NASHVILLE      CLOUDY    86  69  56 SW7       30.00F HX  90
SMYRNA         CLOUDY    86  71  60 W7        30.00F HX  91
SPARTA         SUNNY     88  73  62 CALM      30.02F HX  96
$$
TNZ056-058-060-061-075>077-079-093>097-302000
...SOUTHERN MIDDLE TENNESSEE...

CITY           SKY/WX    TMP DP  RH WIND       PRES   REMARKS
COLUMBIA       SUNNY     86  73  66 S6        30.00R HX  93
FAYETTEVILLE   SUNNY     82  70  65 W3        30.04S
MCMINNVILLE    MOSUNNY   86  72  62 W6        30.03S HX  92
SHELBYVILLE    SUNNY     86  73  66 W7        30.03S HX  93
TULLAHOMA      MOSUNNY   86  68  54 W7        30.05R
WINCHESTER     MOSUNNY   86  70  58 W6        30.04R HX  90
$$


...KEY TO REMARKS...
VSB - VISIBILITY IN MILES
WCI - WIND CHILL INDEX
HX  - HEAT INDEX





USA.gov is the U.S. government's official web portal to all federal, state and local government web resources and services.